Location: Yucca Valley
(34.1140°N, 116.4310°W)
Time: 17:52:14
(UTC-07:00)

Daily predictions for brighter satellites

Satellite Brightness Start Highest point End
(mag) Time Altitude Azimuth Time Altitude Azimuth Time Altitude Azimuth
CZ-2D R/B 3.3 20:10:21 10° SSE 20:14:13 70° ENE 20:18:06 10° N
Helios 1B rocket 3.6 20:18:10 10° NE 20:21:29 23° E 20:24:47 10° SSE
Cosmos 2344 4.3 20:21:59 10° SSE 20:28:26 29° ESE 20:34:58 10° NE
OE (NEXTSAT) 4.4 20:28:21 10° NW 20:31:54 77° NE 20:35:04 12° ESE
COSMOS 2487 4.0 20:29:44 10° NNW 20:33:02 37° WSW 20:36:19 10° S
Cosmos 2369 Rocket 2.2 20:32:20 10° S 20:37:55 69° ESE 20:43:35 10° NNE
YAOGAN 6 3.8 20:35:04 12° SE 20:37:57 27° ENE 20:41:07 10° NNE
Star 37E S/N 40062 4.1 20:36:52 10° WSW 20:38:39 27° S 20:40:52 14° ESE
Cosmos 1606 4.4 20:41:30 10° NE 20:43:56 16° ENE 20:45:19 14° ESE
CZ-3A R/B 2.7 20:41:46 10° WSW 20:45:29 17° SSW 20:47:00 12° SSE
USA 186 2.3 20:44:29 10° S 20:47:00 47° W 20:49:46 10° NNW
Meteor 1-29 3.5 20:46:43 10° NNE 20:49:59 37° E 20:53:03 11° SSE
Cosmos 2221 Rocket 4.4 20:46:07 10° NNE 20:50:06 32° ENE 20:52:50 17° SE
GPS 2-04 Rocket1 2.7 20:46:23 10° W 20:50:11 69° N 20:53:12 14° E
TIMED 4.5 20:46:42 10° SSW 20:51:04 87° E 20:55:27 10° NNE
Lacrosse 5 rocket 2.5 20:48:55 10° WSW 20:52:17 39° NW 20:55:43 10° NNE
H-2A R/B 4.1 20:51:42 10° E 20:54:01 13° ENE 20:56:27 10° NE
Cosmos 1346 Rocket 2.8 20:50:26 10° N 20:54:26 89° E 20:58:27 10° S
COSMOS 2455 3.3 20:48:50 10° SW 20:54:47 67° WNW 21:00:47 10° NNE
Helios 1A 3.1 20:52:09 14° SSE 20:55:32 55° ENE 20:59:40 10° N
Delta 168 4.2 20:54:17 10° SW 20:57:03 21° S 20:58:32 18° SSE
ATLAS 5 CENTAUR R/B 3.6 20:55:10 10° N 21:00:21 28° NE 21:04:25 16° E
Aureole 3 2.8 20:58:53 17° SSE 21:01:03 49° E 21:03:55 10° NNE
Cosmos 1939 Rocket 3.0 20:59:42 11° S 21:03:43 83° WSW 21:07:52 10° NNW
OAO 3 Copernicus 4.2 20:59:41 10° WSW 21:04:43 77° SSE 21:09:12 13° E
Cosmos 1408 2.9 21:02:40 19° SSE 21:04:57 44° E 21:08:31 10° NNE
ISS -0.7 21:03:23 10° WNW 21:05:33 17° NNW 21:07:44 10° N
ERS-1 Rocket 3.6 21:03:38 21° SE 21:06:29 38° ENE 21:11:07 10° N
Cosmos 1634 Rocket 4.0 21:04:52 10° N 21:11:12 83° E 21:17:15 11° S
Tiangong 2 1.0 21:09:33 10° WNW 21:12:46 82° SSW 21:13:47 40° SE
ARGOS 4.1 21:10:23 21° ESE 21:12:47 30° ENE 21:17:24 10° N
Spot 1 4.3 21:10:06 18° SSE 21:13:37 78° ENE 21:18:37 10° N
CZ-4B DEB 2.4 21:13:37 41° SE 21:14:27 66° ENE 21:17:20 10° N
Resurs 01 Rocket 3.9 21:13:43 10° SSW 21:17:09 22° W 21:20:38 10° NW
Meteor 1-10 Rocket 4.4 21:13:44 10° N 21:19:36 60° E 21:23:06 24° SSE
Cosmos 1048 Rocket 4.4 21:16:47 10° N 21:21:53 46° ENE 21:24:01 30° ESE
Cosmos 1825 2.0 21:20:29 23° S 21:22:41 76° E 21:26:28 10° N
Meteor 2-6 Rocket 4.4 21:18:28 10° N 21:24:22 60° E 21:27:39 27° SSE
Shenzhou-11 Module 2.8 21:25:01 10° WNW 21:27:54 39° SW 21:28:05 38° SSW
USA 215 4.2 21:25:19 18° E 21:29:34 37° NE 21:35:30 10° NNW
Okean 1-7 3.0 21:26:31 10° N 21:30:56 83° W 21:33:11 28° S
TRAILBLAZER 4.4 21:28:56 10° SSW 21:33:26 79° ESE 21:37:59 10° NNE
Cosmos 1782 2.7 21:30:11 10° N 21:34:11 89° ENE 21:35:31 41° S
SPOT 5 3.6 21:36:06 34° ESE 21:37:43 45° ENE 21:42:46 10° N
Cosmos 372 Rocket 4.4 21:38:13 10° SSW 21:43:16 60° WNW 21:48:20 10° N
Cosmos 2279 Rocket 3.9 21:37:23 10° N 21:43:40 87° E 21:47:09 28° S
MetOp-A 4.0 21:42:39 36° SSE 21:44:53 80° ENE 21:50:15 10° N
Cosmos 1862 3.2 21:50:16 59° SSW 21:50:59 86° W 21:54:58 10° N
CENTAUR R/B 3.6 21:46:01 10° WSW 21:51:39 44° NW 21:58:01 10° NNE
SPOT 1/Viking Rocket 4.0 21:51:10 41° E 21:52:00 44° ENE 21:56:56 10° N
deb Kosmos-1763 4.0 21:48:46 10° NNW 21:52:32 85° WSW 21:52:38 83° SSW
Cosmos 1733 Rocket 2.8 21:54:41 69° SE 21:55:03 76° E 21:59:23 10° N
Cosmos 1943 Rocket 3.3 21:50:35 10° SW 21:55:52 43° WNW 22:01:11 10° N
Intercosmos 25 Rocket 4.1 21:53:50 10° N 21:59:55 49° ENE 22:00:10 48° E
Cosmos 1269 Rocket 4.0 21:55:24 10° NNW 22:00:42 82° WSW 22:02:02 51° S
Cosmos 1340 2.8 21:57:26 10° NNW 22:01:13 67° W 22:01:16 66° WSW
Lacrosse 4 Rocket 1.4 22:02:46 10° NNW 22:07:15 82° ENE 22:07:15 82° ENE
ATLAS CENTAUR R/B 3.5 22:15:11 17° NE 22:15:11 17° NE 22:16:07 10° NE
Nimbus 7 Rocket 4.2 22:07:12 10° NNE 22:13:06 83° ESE 22:14:52 48° S
SL-08 RB Rocket 3.7 22:17:13 71° SW 22:17:30 74° WSW 22:22:10 10° NNW
Meteor 2-20 4.3 22:21:20 57° S 22:22:43 87° E 22:28:50 10° N
Meteor 2-20 Rocket 4.3 22:23:36 65° SE 22:24:08 68° E 22:30:13 10° NNE
Cosmos 494 Rocket 4.1 22:25:03 10° N 22:29:48 61° NE 22:29:48 61° NE
Cosmos 1867 3.9 22:27:24 10° NNW 22:32:35 53° NE 22:32:35 53° NE
H-2A R/B 2.2 22:32:21 66° SW 22:32:48 70° WSW 22:38:09 10° NNW
Cosmos 1833 4.5 22:29:27 10° NNW 22:35:06 59° WSW 22:35:41 56° SW
Cosmos 2026 Rocket 4.1 22:36:08 58° ENE 22:36:08 58° ENE 22:41:55 10° NNE
Cosmos 1674 Rocket 4.2 22:32:00 10° NNW 22:35:25 52° NW 22:35:25 52° NW
Milstar 3 3.1 22:28:07 10° WSW 22:38:29 59° S 22:39:07 57° SSE
Landsat 7 4.1 22:39:41 65° NNW 22:39:41 65° NNW 22:43:44 10° NNW
Cosmos 2297 Rocket 4.2 22:41:44 10° NNE 22:44:58 15° NE 22:45:04 15° ENE
ATLAS 5 CENTAUR R/B 2.9 22:39:18 10° NW 22:45:18 50° WSW 22:45:58 48° SW
H-2A R/B 3.8 22:47:58 24° NNE 22:47:58 24° NNE 22:49:54 10° N
Terra 2.5 22:55:21 50° NNW 22:55:21 50° NNW 22:58:54 10° NNW
USA 215 3.5 23:12:40 57° WSW 23:12:40 57° WSW 23:18:47 10° NW
Cosmos 1553 Rocket 4.3 23:15:49 10° N 23:21:03 58° NNE 23:21:03 58° NNE
CZ-2C R/B 4.4 23:25:14 10° NNE 23:27:13 22° NE 23:27:13 22° NE
Cosmos 2227 Rocket 3.3 23:29:42 10° N 23:33:36 39° NNE 23:33:36 39° NNE
Cosmos 2219 4.4 23:37:08 10° NW 23:41:02 36° WNW 23:41:02 36° WNW
BREEZE-M DEB (TANK) 4.5 23:36:05 10° WNW 23:50:59 71° NNE 23:50:59 71° NNE
ATLAS CENTAUR R/B 4.5 23:51:21 10° NW 23:51:29 10° NW 23:52:02 10° NW
